Greybull, WY

2:33 PM MST on December 12, 2019 (GMT -0700)
South Big Horn County

Weather History for KGEY - October, 2019

Change the Weather History Date:

Thursday, October 3, 2019

  Actual Average Record
Temperature  
Mean Temperature 44 °F 51 °F  
Max Temperature 59 °F 65 °F 85 °F (2010)
Min Temperature 28 °F 36 °F 26 °F (1990)
Degree Days  
Heating Degree Days 21 14  
Month to date heating degree days 71 41  
Since 1 July heating degree days 246 272  
Cooling Degree Days 0 0  
Month to date cooling degree days 0 0  
Year to date cooling degree days 733 669  
Moisture  
Dew Point 31 °F    
Average Humidity 67    
Maximum Humidity 100    
Minimum Humidity 33    
Precipitation  
Precipitation 0.00 in 0.03 in 0.78 in (2016)
Month to date precipitation 0.02 0.08  
Year to date precipitation 7.34 6.41  
Sea Level Pressure  
Sea Level Pressure 30.14 in    
Wind  
Wind Speed 4 mph (SE)    
Max Wind Speed 12 mph    
Max Gust Speed 17 mph    
Visibility 10 miles    
Events      
T = Trace of Precipitation, MM = Missing Value Source: NWS Daily Summary

Daily Weather History Graph

Daily Weather History Graph

Search for Another Location

Airport or City:

Astronomy

Oct. 03, 2019 Rise Set
Actual Time 7:12 AM MDT 6:49 PM MDT
Civil Twilight 6:43 AM MDT 7:18 PM MDT
Nautical Twilight 6:09 AM MDT 7:52 PM MDT
Astronomical Twilight 5:35 AM MDT 8:26 PM MDT
Moon 12:58 PM MDT (10/3) 10:18 PM MDT (10/3)
Length of Visible Light 12h 35m
Length of Day
11h 37m
Waxing Crescent, 30% of the Moon is Illuminated
Oct 3
Waxing Crescent
Oct 5
First Quarter
Oct 13
Full
Oct 21
Last Quarter
Oct 27
New

Hourly Weather History & Observations

Time (MDT) Temp. Windchill Dew Point Humidity Pressure Visibility Wind Dir Wind Speed Gust Speed Precip Events Conditions
12:53 AM 34.0 °F - 32.0 °F 92% 30.28 in 10.0 mi Calm Calm - N/A   Clear
1:53 AM 32.0 °F 27.5 °F 30.9 °F 96% 30.27 in 10.0 mi ESE 4.6 mph - N/A   Clear
2:53 AM 32.0 °F 27.5 °F 30.0 °F 92% 30.26 in 10.0 mi SE 4.6 mph - N/A   Clear
3:53 AM 30.0 °F 25.2 °F 28.0 °F 92% 30.24 in 10.0 mi North 4.6 mph - N/A   Clear
4:53 AM 28.0 °F 22.8 °F 27.0 °F 96% 30.25 in 10.0 mi SE 4.6 mph - N/A   Scattered Clouds
5:53 AM 28.0 °F 22.8 °F 27.0 °F 96% 30.24 in 10.0 mi SE 4.6 mph - N/A   Partly Cloudy
6:53 AM 28.0 °F 24.2 °F 27.0 °F 96% 30.26 in 10.0 mi SE 3.5 mph - N/A   Clear
7:53 AM 28.9 °F 23.9 °F 28.0 °F 96% 30.26 in 10.0 mi South 4.6 mph - N/A   Clear
8:53 AM 33.1 °F - 30.9 °F 92% 30.26 in 10.0 mi Calm Calm - N/A   Clear
9:53 AM 37.0 °F - 33.1 °F 86% 30.25 in 10.0 mi Calm Calm - N/A   Clear
10:53 AM 42.1 °F - 33.1 °F 70% 30.22 in 10.0 mi Calm Calm - N/A   Clear
11:53 AM 46.9 °F - 32.0 °F 56% 30.19 in 10.0 mi Variable 4.6 mph - N/A   Clear
1:53 PM 54.0 °F - 30.0 °F 40% 30.12 in 10.0 mi Variable 5.8 mph - N/A   Clear
2:53 PM 57.0 °F - 32.0 °F 39% 30.08 in 10.0 mi SSE 8.1 mph - N/A   Clear
3:53 PM 57.9 °F - 30.0 °F 35% 30.06 in 10.0 mi SSE 5.8 mph - N/A   Clear
4:53 PM 59.0 °F - 30.0 °F 33% 30.04 in 10.0 mi SSW 5.8 mph - N/A   Clear
5:53 PM 57.9 °F - 28.0 °F 32% 30.02 in 10.0 mi Variable 3.5 mph - N/A   Clear
6:53 PM 54.0 °F - 30.0 °F 40% 30.02 in 10.0 mi NW 3.5 mph - N/A   Clear
7:53 PM 46.9 °F - 33.1 °F 59% 30.04 in 10.0 mi NNW 4.6 mph - N/A   Clear
8:53 PM 44.1 °F 42.5 °F 34.0 °F 68% 30.01 in 10.0 mi East 3.5 mph - N/A   Clear
9:53 PM 39.9 °F 37.8 °F 34.0 °F 79% 30.00 in 10.0 mi West 3.5 mph - N/A   Clear
10:53 PM 39.9 °F - 34.0 °F 79% 29.98 in 10.0 mi Calm Calm - N/A   Clear
11:53 PM 39.0 °F - 33.1 °F 79% 29.95 in 10.0 mi Calm Calm - N/A   Clear